Location: Владивосток
(43.1151°N, 131.8856°E)
Time: 16:37:03
(UTC+10:00)

CZ-6A DEB - Pass Details

Date: 25 December 2025
Orbit: 721 x 815 km, 98.7° (Epoch: 21 January)

Event Time Altitude Azimuth Distance (km) Brightness Sun altitude
Exits shadow 19:34:37 13° 13° (NNE) 2,048 ? -19.6°
Drops below altitude 10° 19:35:20 10° 8° (N) 2,283 ? -19.7°
Sets 19:37:46 0° 357° (N) 3,166 ? -20.2°
